Regional Weather Roundup
Issued by NWS

Home | Current Version | Previous Version | Graphics & Text | Print | Product List | Glossary On
Versions: 1 2 3 4 5 6 7 8 9 10 11 12 13 14 15 16 17 18 19 20 21 22 23 24 25 26 27 28 29 30 31 32 33 34 35 36 37 38 39 40 41 42 43 44 45 46 47 48 49 50
000
ASUS43 KDMX 260408
RWRIA

WEATHER ROUNDUP FOR IOWA
NATIONAL WEATHER SERVICE DES MOINES IA
1100 PM CDT SUN SEP 25 2016

NOTE: "FAIR" INDICATES FEW OR NO CLOUDS BELOW 12,000 FEET WITH NO
SIGNIFICANT WEATHER AND/OR OBSTRUCTIONS TO VISIBILITY.

* - THESE STATIONS ARE NOT NWS STATIONS...THUS NOT UNDER NWS
QUALITY CONTROL.  THEY ALSO DO NOT REPORT WEATHER SUCH
AS PRECIPITATION OR FOG.

IAZ001>003-012>014-020>022-031>034-043>046-260500-
   NORTHWEST IOWA

CITY           SKY/WX    TMP DP  RH WIND       PRES   REMARKS
CARROLL *      CLEAR     55  43  62 W8        30.16S
CHEROKEE *     CLEAR     52  41  65 W6        30.17R
DENISON *      CLEAR     54  41  62 CALM      30.17S
LE MARS *      CLEAR     50  41  71 W5        30.19S
ORANGE CITY *  CLEAR     48  43  81 W6        30.18R
SHELDON *      CLEAR     52  41  66 W8G15     30.15S
SIOUX CITY     CLEAR     53  41  63 W8        30.20R
SPENCER        PTCLDY    51  43  74 W9        30.14S
STORM LAKE *   CLEAR     50  43  76 W9        30.17R
$$

IAZ055>058-069>071-079>083-090>094-260500-
   SOUTHWEST IOWA

CITY           SKY/WX    TMP DP  RH WIND       PRES   REMARKS
ATLANTIC *     CLEAR     55  43  62 NW7       30.19R
AUDUBON *      CLEAR     54  45  71 CALM      30.19R
CLARINDA *       N/A     57  48  72 MISG      30.21S
COUNCIL BLFS * CLEAR     57  39  51 NW8G15    30.21S
CRESTON *      CLEAR     54  48  82 W7        30.19R
HARLAN  *      CLEAR     54  43  66 NW8       30.23R
LAMONI         PTCLDY    55  50  83 W7        30.17S
RED OAK *      CLEAR     54  46  76 NW7       30.20S
SHENANDOAH *   CLEAR     55  48  76 W5        30.21S
$$

IAZ047>049-059>061-072>074-084-260500-
   CENTRAL IOWA

CITY           SKY/WX    TMP DP  RH WIND       PRES   REMARKS
AMES           CLEAR     53  52  96 W8        30.12S
ANKENY *         N/A    N/A N/A N/A MISG        N/A
BOONE *        CLEAR     55  48  76 W10       30.13R
CHARITON *       N/A     54  50  87 W6        30.15S
DES MOINES     CLEAR     57  50  77 W5        30.13S
GRINNELL*      PTCLDY    55  50  85 W6        30.12S
KNOXVILLE *    PTCLDY    54  50  87 W7        30.12S
MARSHALLTOWN   MOCLDY    54  51  90 W7        30.10S
NEWTON *       MOCLDY    54  50  87 W5        30.12S
PELLA *        PTCLDY    57  51  79 W5        30.14S
PERRY *          N/A     54  50  89 W7        30.15R
$$

IAZ004>006-015-016-023>025-035-036-260500-
   NORTH CENTRAL IOWA

CITY           SKY/WX    TMP DP  RH WIND       PRES   REMARKS
ALGONA *       CLEAR     54  45  71 W8        30.12S
CLARION *      CLEAR     54  50  87 W8        30.11R
ESTHERVILLE    PTCLDY    53  42  66 W9        30.12S
FORT DODGE *   CLEAR     55  45  67 W8        30.13R
MASON CITY     CLEAR     53  46  77 W12       30.09S
FOREST CITY *    N/A     50  45  81 W8        30.09S
WEBSTER CITY * CLEAR     54  48  82 W8        30.11R
IOWA FALLS *     N/A     55  50  83 W9        30.11S
$$

IAZ007>011-017>019-026>030-037>042-050>054-066-260500-
   NORTHEAST IOWA

CITY           SKY/WX    TMP DP  RH WIND       PRES   REMARKS
CEDAR RAPIDS   CLOUDY    58  53  84 W10       30.08R
CHARLES CITY * PTCLDY    55  52  88 W6        30.07R
CLINTON *      CLOUDY    63  52  67 NW12G20   30.05S
DECORAH *      CLEAR     55  52  88 VRB6G15   30.03S
DUBUQUE        CLOUDY    59  51  75 NW10      30.04S
MONTICELLO *   CLOUDY    61  52  72 W9        30.06R
OELWEIN *      CLEAR     54  52  94 W7        30.07S
WATERLOO       PTCLDY    57  51  80 W9        30.07S
$$

IAZ064-065-067-068-078-260500-
   EAST CENTRAL IOWA

CITY           SKY/WX    TMP DP  RH WIND       PRES   REMARKS
DAVENPORT      CLOUDY    62  50  64 W12G22    30.07R
IOWA CITY      CLOUDY    61  51  70 W9        30.10R
MT. PLEASANT * CLOUDY    65  51  61 W10G16    30.12R
MUSCATINE *    CLOUDY    63  50  63 NW12      30.09R
QUAD CITIES    CLOUDY    64  50  60 W16       30.06R
$$

IAZ062-063-075>077-085>089-095>099-260500-
   SOUTHEAST IOWA

CITY           SKY/WX    TMP DP  RH WIND       PRES   REMARKS
BURLINGTON     PTCLDY    63  50  62 NW10      30.10R
FAIRFIELD *    CLOUDY    61  48  63 NW8       30.12R
FORT MADISON *   N/A     63  50  63 NW7       30.12R
KEOKUK *       PTCLDY    64  52  63 NW9       30.11R
OSKALOOSA *      N/A     58  50  74 W5        30.13S
OTTUMWA        CLOUDY    59  49  69 W8        30.13R
WASHINGTON *     N/A    N/A N/A N/A MISG        N/A
$$

ABBREVIATIONS USED IN REMARKS
   TC - TEMPERATURES IN CELSIUS
  WCI - WIND CHILL INDEX
   HX - HEAT INDEX
  VSB - VISIBILITY
$$




USA.gov is the U.S. government's official web portal to all federal, state and local government web resources and services.